Sallisaw, OK

3:20 AM CST on February 28, 2017 (GMT -0600)
Sallisaw Municipal

Weather History for KJSV - April, 2013

Change the Weather History Date:

Thursday, April 4, 2013

  Actual Average Record
Temperature  
Mean Temperature 50 °F -  
Max Temperature 59 °F 70 °F 91 °F (2001)
Min Temperature 42 °F 44 °F 24 °F (1987)
Degree Days  
Heating Degree Days 14    
Moisture  
Dew Point 39 °F    
Average Humidity 73    
Maximum Humidity 93    
Minimum Humidity 39    
Precipitation  
Precipitation 0.39 in - - ()
Sea Level Pressure  
Sea Level Pressure 30.13 in    
Wind  
Wind Speed 4 mph (NNW)    
Max Wind Speed 9 mph    
Max Gust Speed 9 mph    
Visibility 10 miles    
Events Rain    
Averages and records for this station are not official NWS values.
T = Trace of Precipitation, MM = Missing Value Source: NWS Daily Summary

Daily Weather History Graph

Daily Weather History Graph

Search for Another Location

Airport or City:

Trip Planner

Search our weather history database for the weather conditions in past years. The results will help you decide how hot, cold, wet, or windy it might be!

Date:

Astronomy

Apr. 04, 2013 Rise Set
Actual Time 7:01 AM CDT 7:43 PM CDT
Civil Twilight 6:35 AM CDT 8:09 PM CDT
Nautical Twilight 6:05 AM CDT 8:39 PM CDT
Astronomical Twilight 5:34 AM CDT 9:10 PM CDT
Moon 3:16 AM CDT (4/4) 2:13 PM CDT (4/4)
Length of Visible Light 13h 33m
Length of Day
12h 42m
Waning Crescent, 33% of the Moon is Illuminated
Apr 4
Waning Crescent
Apr 10
New
Apr 18
First Quarter
Apr 25
Full
May 2
Last Quarter

Hourly Weather History & Observations

Time (CDT) Temp. Windchill Dew Point Humidity Pressure Visibility Wind Dir Wind Speed Gust Speed Precip Events Conditions
12:15 AM 44.6 °F 42.2 °F 39.2 °F 81% 30.19 in 10.0 mi NW 4.6 mph - N/A Rain Light Rain
12:35 AM 44.6 °F 43.1 °F 41.0 °F 87% 30.18 in 10.0 mi NW 3.5 mph - N/A Rain Light Rain
12:55 AM 44.6 °F - 41.0 °F 87% 30.18 in 10.0 mi Calm Calm - N/A   Light Drizzle
1:15 AM 44.6 °F - 41.0 °F 87% 30.17 in 10.0 mi Calm Calm - N/A   Drizzle
1:35 AM 44.6 °F - 41.0 °F 87% 30.16 in 10.0 mi Calm Calm - 0.01 in   Drizzle
1:55 AM 44.6 °F - 41.0 °F 87% 30.16 in 10.0 mi Calm Calm - 0.01 in Rain Rain
2:15 AM 44.6 °F - 41.0 °F 87% 30.16 in 10.0 mi Calm Calm - N/A Rain Rain
2:55 AM 42.8 °F 39.3 °F 41.0 °F 93% 30.15 in 10.0 mi NNW 5.8 mph - 0.04 in Rain Rain
3:15 AM 42.8 °F 38.6 °F 41.0 °F 93% 30.15 in 7.0 mi NNW 6.9 mph - 0.04 in Rain Rain
3:35 AM 42.8 °F 38.6 °F 41.0 °F 93% 30.15 in 7.0 mi NNW 6.9 mph - 0.08 in Rain Rain
3:55 AM 42.8 °F 38.0 °F 41.0 °F 93% 30.15 in 7.0 mi NNW 8.1 mph - 0.12 in Rain Light Rain
4:15 AM 42.8 °F 40.1 °F 41.0 °F 93% 30.15 in 7.0 mi North 4.6 mph - 0.03 in Rain Rain
4:35 AM 42.8 °F 39.3 °F 41.0 °F 93% 30.15 in 7.0 mi NNW 5.8 mph - 0.09 in Rain Rain
4:55 AM 42.8 °F 40.1 °F 41.0 °F 93% 30.15 in 10.0 mi NNW 4.6 mph - 0.12 in Rain Rain
5:15 AM 42.8 °F 39.3 °F 41.0 °F 93% 30.15 in 10.0 mi NNW 5.8 mph - 0.03 in Rain Rain
5:35 AM 42.8 °F 39.3 °F 41.0 °F 93% 30.16 in 10.0 mi NNW 5.8 mph - 0.05 in Rain Light Rain
5:55 AM 42.8 °F 40.1 °F 41.0 °F 93% 30.15 in 10.0 mi NNW 4.6 mph - 0.06 in Rain Light Rain
6:15 AM 42.8 °F 40.1 °F 41.0 °F 93% 30.15 in 10.0 mi NNW 4.6 mph - 0.01 in Rain Light Rain
6:55 AM 42.8 °F 39.3 °F 39.2 °F 87% 30.15 in 10.0 mi NNW 5.8 mph - 0.02 in Rain Light Rain
7:15 AM 42.8 °F 40.1 °F 39.2 °F 87% 30.15 in 10.0 mi NNW 4.6 mph - 0.01 in Rain Light Rain
7:35 AM 42.8 °F 41.1 °F 41.0 °F 93% 30.15 in 10.0 mi NNW 3.5 mph - 0.01 in Rain Light Rain
8:15 AM 42.8 °F 39.3 °F 41.0 °F 93% 30.15 in 7.0 mi NNW 5.8 mph - N/A Rain Light Rain
8:35 AM 42.8 °F 39.3 °F 39.2 °F 87% 30.16 in 7.0 mi NNW 5.8 mph - N/A   Light Drizzle
8:55 AM 42.8 °F 41.1 °F 39.2 °F 87% 30.16 in 7.0 mi NNW 3.5 mph - N/A   Mostly Cloudy
9:15 AM 42.8 °F 40.1 °F 39.2 °F 87% 30.17 in 10.0 mi NNW 4.6 mph - N/A Rain Light Rain
9:55 AM 42.8 °F 39.3 °F 41.0 °F 93% 30.16 in 7.0 mi NNW 5.8 mph - 0.01 in Rain Light Rain
10:15 AM 42.8 °F 40.1 °F 39.2 °F 87% 30.15 in 7.0 mi NNW 4.6 mph - N/A Rain Light Rain
10:35 AM 42.8 °F 40.1 °F 39.2 °F 87% 30.15 in 10.0 mi NNW 4.6 mph - N/A   Light Drizzle
10:55 AM 44.6 °F 42.2 °F 41.0 °F 87% 30.15 in 10.0 mi NNW 4.6 mph - N/A   Clear
11:15 AM 44.6 °F 41.4 °F 41.0 °F 87% 30.16 in 10.0 mi NW 5.8 mph - N/A   Clear
11:35 AM 46.4 °F 42.9 °F 41.0 °F 81% 30.16 in 10.0 mi NNW 6.9 mph - N/A   Scattered Clouds
11:55 AM 46.4 °F 42.9 °F 41.0 °F 81% 30.16 in 10.0 mi WNW 6.9 mph - N/A   Mostly Cloudy
12:15 PM 46.4 °F 43.5 °F 41.0 °F 81% 30.16 in 10.0 mi NW 5.8 mph - N/A   Scattered Clouds
12:35 PM 46.4 °F 42.4 °F 39.2 °F 76% 30.16 in 10.0 mi NW 8.1 mph - N/A   Scattered Clouds
12:55 PM 46.4 °F 42.9 °F 39.2 °F 76% 30.16 in 10.0 mi NNW 6.9 mph - N/A   Scattered Clouds
1:15 PM 48.2 °F - 39.2 °F 71% 30.15 in 10.0 mi NNW 6.9 mph - N/A   Scattered Clouds
1:35 PM 50.0 °F - 41.0 °F 71% 30.15 in 10.0 mi NNW 8.1 mph - N/A   Clear
1:55 PM 50.0 °F - 41.0 °F 71% 30.14 in 10.0 mi NW 6.9 mph - N/A   Scattered Clouds
2:15 PM 51.8 °F - 41.0 °F 67% 30.13 in 10.0 mi NNW 4.6 mph - N/A   Scattered Clouds
2:35 PM 51.8 °F - 39.2 °F 62% 30.12 in 10.0 mi NW 8.1 mph - N/A   Mostly Cloudy
2:55 PM 53.6 °F - 37.4 °F 54% 30.12 in 10.0 mi WNW 3.5 mph 9.2 mph N/A   Mostly Cloudy
3:15 PM 53.6 °F - 39.2 °F 58% 30.11 in 10.0 mi NW 9.2 mph - N/A   Scattered Clouds
3:35 PM 53.6 °F - 39.2 °F 58% 30.10 in 10.0 mi NW 6.9 mph - N/A   Mostly Cloudy
3:55 PM 53.6 °F - 37.4 °F 54% 30.09 in 10.0 mi NNW 3.5 mph - N/A   Mostly Cloudy
4:15 PM 55.4 °F - 37.4 °F 51% 30.08 in 10.0 mi NW 6.9 mph - N/A   Scattered Clouds
4:35 PM 57.2 °F - 37.4 °F 48% 30.08 in 10.0 mi NW 8.1 mph - N/A   Scattered Clouds
4:55 PM 57.2 °F - 37.4 °F 48% 30.08 in 10.0 mi NNW 8.1 mph - N/A   Mostly Cloudy
5:15 PM 59.0 °F - 35.6 °F 42% 30.08 in 10.0 mi NW 5.8 mph - N/A   Scattered Clouds
5:35 PM 59.0 °F - 35.6 °F 42% 30.07 in 10.0 mi North 5.8 mph - N/A   Mostly Cloudy
5:55 PM 59.0 °F - 37.4 °F 45% 30.07 in 10.0 mi North 4.6 mph - N/A   Overcast
6:15 PM 59.0 °F - 35.6 °F 42% 30.07 in 10.0 mi North 5.8 mph - N/A   Overcast
6:35 PM 59.0 °F - 37.4 °F 45% 30.07 in 10.0 mi NNW 8.1 mph - N/A   Scattered Clouds
6:55 PM 59.0 °F - 35.6 °F 42% 30.08 in 10.0 mi NW 5.8 mph - N/A   Clear
7:15 PM 59.0 °F - 33.8 °F 39% 30.08 in 10.0 mi North 5.8 mph - N/A   Clear
7:35 PM 57.2 °F - 33.8 °F 41% 30.09 in 10.0 mi North 3.5 mph - N/A   Clear
7:55 PM 55.4 °F - 35.6 °F 47% 30.09 in 10.0 mi Calm Calm - N/A   Clear
8:15 PM 53.6 °F - 37.4 °F 54% 30.10 in 10.0 mi NNW 3.5 mph - N/A   Clear
8:35 PM 53.6 °F - 35.6 °F 51% 30.09 in 10.0 mi NW 3.5 mph - N/A   Scattered Clouds
8:55 PM 51.8 °F - 39.2 °F 62% 30.10 in 10.0 mi Calm Calm - N/A   Scattered Clouds
9:15 PM 50.0 °F - 39.2 °F 66% 30.11 in 10.0 mi NW 3.5 mph - N/A   Clear
9:35 PM 50.0 °F - 37.4 °F 62% 30.12 in 10.0 mi Calm Calm - N/A   Clear
9:55 PM 50.0 °F - 41.0 °F 71% 30.13 in 10.0 mi NW 4.6 mph - N/A   Mostly Cloudy
10:15 PM 50.0 °F - 41.0 °F 71% 30.14 in 10.0 mi NW 3.5 mph - N/A   Overcast
10:55 PM 50.0 °F - 42.8 °F 76% 30.15 in 10.0 mi Calm Calm - N/A   Overcast
11:15 PM 50.0 °F - 39.2 °F 66% 30.15 in 10.0 mi West 3.5 mph - N/A   Mostly Cloudy
11:35 PM 50.0 °F - 39.2 °F 66% 30.14 in 10.0 mi West 3.5 mph - N/A   Scattered Clouds
11:55 PM 48.2 °F - 37.4 °F 66% 30.15 in 10.0 mi NW 3.5 mph - N/A   Clear